Regional Weather Roundup
Issued by NWS Wilmington, NC

Home | Current Version | Previous Version | Text Only | Print | Product List | Glossary On
Versions: 1 2 3 4 5 6 7 8 9 10 11 12 13 14 15 16 17 18 19 20 21 22 23 24 25 26 27 28 29 30 31 32 33 34 35 36 37 38 39 40 41 42 43 44 45 46 47 48 49 50
000
ASUS42 KILM 060613
RWRILM
RWRILM
REGIONAL HOURLY WEATHER ROUNDUP
NATIONAL WEATHER SERVICE WILMINGTON NC
200 AM EDT WED MAY 06 2015

NOTE: "FAIR" INDICATES FEW OR NO CLOUDS BELOW 12,000 FEET WITH NO
SIGNIFICANT WEATHER AND/OR OBSTRUCTIONS TO VISIBILITY.

...............WFO WILMINGTON COUNTY WARNING AREA...............

......COASTAL NC AND SC COUNTIES......

CITY           SKY/WX    TMP DP  RH WIND       PRES   REMARKS
WILMINGTON     MOCLDY    58  55  90 CALM      30.26F
N MYRTLE BEACH CLOUDY    59  56  89 NE5       30.24F
MYRTLE BEACH   CLOUDY    63  57  82 N5        30.26F

......INLAND NC AND SC COUNTIES.......

CITY           SKY/WX    TMP DP  RH WIND       PRES   REMARKS
LUMBERTON      PTCLDY    53  51  93 CALM      30.26F
ELIZABETHTOWN  MOCLDY    58  55  89 CALM      30.26F
WHITEVILLE     MOCLDY    56  54  94 CALM      30.25F
FLORENCE       PTCLDY    59  55  87 NE3       30.25F
DARLINGTON     PTCLDY    59  52  77 N3        30.27F

....................REST OF NORTH CAROLINA......................

.........EASTERN NC.........

CITY           SKY/WX    TMP DP  RH WIND       PRES   REMARKS
CAPE HATTERAS  MOCLDY    63  58  83 S5        30.28F
JACKSONVILLE   MOCLDY    52  46  82 CALM      30.28F
MOREHEAD CITY  MOCLDY    59  57  93 E5        30.27F
KENANSVILLE    PTCLDY    52  51  94 CALM      30.28F
NEW BERN       PTCLDY    54  50  86 CALM      30.28F
ELIZABETH CITY CLEAR     60  55  83 W3        30.28F

.........CENTRAL NC.........

CITY           SKY/WX    TMP DP  RH WIND       PRES   REMARKS
RALEIGH DURHAM PTCLDY    62  52  69 CALM      30.28F
ROCKY MOUNT    CLEAR     57  53  86 CALM      30.28F
ROANOKE RAPIDS NOT AVBL
FAYETTEVILLE   CLEAR     58  52  80 CALM      30.26F
HOFFMAN        PTCLDY    56  54  91 N1        30.31F

.........WESTERN NC.........

CITY           SKY/WX    TMP DP  RH WIND       PRES   REMARKS
CHARLOTTE      PTCLDY    63  51  65 CALM      30.27S
GREENSBORO     PTCLDY    62  55  77 S6        30.25F
HICKORY        NOT AVBL
BOONE          NOT AVBL
ASHEVILLE      NOT AVBL

.....................REST OF SOUTH CAROLINA.....................

.........EASTERN SC.........

CITY           SKY/WX    TMP DP  RH WIND       PRES   REMARKS
CHARLESTON     MOCLDY    61  59  93 N6        30.22F
BEAUFORT MCAS  MOCLDY    64  61  90 N7        30.20F
HILTON HEAD    MOCLDY    70  64  83 N6        30.21F

.........CENTRAL SC.........

CITY           SKY/WX    TMP DP  RH WIND       PRES   REMARKS
COLUMBIA       MOCLDY    64  53  67 NE5       30.25S
ORANGEBURG     MOCLDY    58  54  86 CALM      30.24F
SUMTER SHAW    PTCLDY    59  53  81 NE3       30.24F

.........WESTERN SC.........

CITY           SKY/WX    TMP DP  RH WIND       PRES   REMARKS
GREENVILLE     NOT AVBL
ROCK HILL      CLEAR     57  54  89 CALM      30.27S
ANDERSON       CLEAR     58  53  84 CALM      30.25F
CLEMSON        NOT AVBL
GREENWOOD      PTCLDY    57  54  89 CALM      30.27S


...................COASTAL AND OFFSHORE REPORTS..................

................LOCAL PIERS AND NC RESERVE................


STATION/POSITION TIME  SKY/WX   TEMP    WIND        PRES    VSBY
                                AIR SEA DIR/SP/G
                 (UTC)          (F)     (DEG/KT/KT) (MB)    (MI)
JOHNY MRCER PIER 0506            66 69   10/  5/  6 1024.5F
NC RESRV MASNBRO NOT AVBL
OCEAN CREST PIER NOT AVBL
SPRINGMAID  PIER 0506            69 71   20/  9/ 10 1024.5F


................COASTAL AND OFFSHORE BUOYS................


STATION/POSITION TIME  SKY/WX   TEMP    WIND        PRES    VSBY
                                AIR SEA DIR/SP/G
                 (UTC)          (F)     (DEG/KT/KT) (MB)    (MI)
DIMNDSHOAL 41025 0550            70 75  170/  6/  8 1025.7F
WVE H/P(F/S)=  3/11 WND WVE H/P(F/S)=  2/ 4 SWL H/P/D(F/S/D)=  3/ 70/11

CAPE LOOKOUT     0600            68      80/  5/  5 1024.7F
ONSLOW BAY 41036 NOT AVBL
5 WRITEBCH 41038 0508            69 69   40/  4/  6 1025.0F
MASONBORO  41110 0519               69                N/A
WVE H/P(F/S)=  3/ 5 WND WVE H/P(F/S)=  3/ 5

WILM HARBR 41108 0511               69                N/A
WVE H/P(F/S)=  3/ 6 WND WVE H/P(F/S)=  3/ 6

27WRITEBCH 41037 0500            68 71  120/  4/  6   N/A
FRYING PAN 41013 0550            73 71  120/ 10/ 12 1024.6F
WVE H/P(F/S)=  5/ 7 WND WVE H/P(F/S)=  2/ 4 SWL H/P/D(F/S/D)=  3/140/ 7

SUNST NRSH 41024 0508            67      40/  6/  8 1024.6F
CAPRS NRSH 41029 0508            70      60/  8/ 10 1023.4F
EDISTO     41004 0550            74 73   70/ 14/ 16 1022.2F
WVE H/P(F/S)=  5/ 7 WND WVE H/P(F/S)=  3/ 5 SWL H/P/D(F/S/D)=  3/ 7



..........OFFSHORE BUOYS BEYOND 100 NM OFFSHORE...........
.....IN A TRIANGLE---HAT TO BERMUDA TO BAHAMAS TO HAT.....


STATION/POSITION TIME  SKY/WX   TEMP    WIND        PRES    VSBY
                                AIR SEA DIR/SP/G
                 (UTC)          (F)     (DEG/KT/KT) (MB)    (MI)
150E HAT   41001 NOT AVBL
W BERMUDA  41048 0550            69 70  100/ 12/ 14 1025.3F
WVE H/P(F/S)=  4/11 WND WVE H/P(F/S)=  3/ 5 SWL H/P/D(F/S/D)=  3/ 60/11

ATLANTIC S 41049 0550            74 77   90/ 12/ 14 1023.8F
WVE H/P(F/S)=  5/ 6 WND WVE H/P(F/S)=  3/ 5 SWL H/P/D(F/S/D)=  5/ 60/ 6

E BAHAMAS  41046 0550            79 80  110/ 14/ 16 1020.1F
WVE H/P(F/S)=  5/ 7 WND WVE H/P(F/S)=  3/ 5 SWL H/P/D(F/S/D)=  3/ 70/ 7

NE BAHAMAS 41047 0550            77 78  130/ 19/ 23 1019.9F
WVE H/P(F/S)=  8/ 8 WND WVE H/P(F/S)=  8/ 8

120E CANVRL41010 0520            75 78   60/ 16/ 19 1018.0F

END



USA.gov is the U.S. government's official web portal to all federal, state and local government web resources and services.